{"data":{"norad_id":68386,"intl_designator":"2026-063G","name":"STARLINK-37198","alt_names":[],"object_type":"PAYLOAD","status":"ACTIVE","operator":null,"country":"US","launch_date":"2026-03-26","launch_site_code":"AFWTR","launch_vehicle":null,"mission":null,"orbit_class":"UNKNOWN","rcs_meters":null,"size_class":null,"mass_kg":null,"dimensions":null,"purposes":["comms"],"wikipedia_slug":null,"has_3d_model":false,"image_url":null,"decayed_at":null,"tle_current":{"epoch":"2026-09-19T21:49:46.962912Z","epoch_age_seconds":98691,"freshness":"FRESH","line1":"1 68386U 26063G   26262.90957133  .00014498  00000+0  45049-3 0  9993","line2":"2 68386  97.2806  43.8609 0000512  94.0169 266.1132 15.33447701 27669","mean_motion":15.33447701,"eccentricity":5.12e-5,"inclination_deg":97.2806,"raan_deg":43.8609,"arg_perigee_deg":94.0169,"mean_anomaly_deg":266.1132,"bstar":0.00045049,"rev_number":2766,"period_min":93.906039251351,"perigee_km":465.18474220077,"apogee_km":465.88553422772,"semimajor_km":6843.6721382142,"source":"CELESTRAK","updated_at":"2026-09-20T09:00:43.893653Z"}}}